Weather History for Lancaster, TX

Change the Weather History Date:

Tuesday, February 12, 2013

  Actual Average (KRBD) Record (KRBD)
Temperature  
Mean Temperature 46 °F -  
Max Temperature 50 °F 57 °F 73 °F (2009)
Min Temperature 42 °F 39 °F 24 °F (2006)
Degree Days  
Heating Degree Days 19    
Moisture  
Dew Point 44 °F    
Average Humidity 93    
Maximum Humidity 100    
Minimum Humidity 87    
Precipitation  
Precipitation 0.35 in - - ()
Sea Level Pressure  
Sea Level Pressure 29.94 in    
Wind  
Wind Speed 6 mph (North)    
Max Wind Speed 18 mph    
Max Gust Speed 30 mph    
Visibility 9 miles    
Events Rain , Thunderstorm    
Averages and records for this station are not official NWS values.
T = Trace of Precipitation, MM = Missing Value Source: NWS Daily Summary

Daily Weather History Graph

Daily Weather History Graph

Search for Another Location

Airport:

Trip Planner

Search our weather history database for the weather conditions in past years. The results will help you decide how hot, cold, wet, or windy it might be!

Date:

Astronomy

Feb. 12, 2013 Rise Set
Actual Time 7:12 AM CST 6:10 PM CST
Civil Twilight 6:47 AM CST 6:35 PM CST
Nautical Twilight 6:18 AM CST 7:04 PM CST
Astronomical Twilight 5:49 AM CST 7:33 PM CST
Moon 8:22 AM CST (2/12) 8:58 PM CST (2/12)
Length of Visible Light 11h 48m
Length of Day
10h 57m
Waxing Crescent, 7% of the Moon is Illuminated
Feb 12
Waxing Crescent
Feb 17
First Quarter
Feb 25
Full
Mar 4
Last Quarter
Mar 11
New

Hourly Weather History & Observations

Time (CST) Temp. Windchill Dew Point Humidity Pressure Visibility Wind Dir Wind Speed Gust Speed Precip Events Conditions
12:15 AM 44.6 °F 39.7 °F 41.0 °F 87% 30.03 in 10.0 mi East 9.2 mph - N/A   Clear
12:35 AM 44.6 °F 40.7 °F 41.0 °F 87% 30.01 in 10.0 mi ENE 6.9 mph - N/A   Clear
12:55 AM 44.6 °F 41.4 °F 41.0 °F 87% 29.99 in 10.0 mi ENE 5.8 mph - N/A   Clear
1:15 AM 44.6 °F 42.2 °F 41.0 °F 87% 30.00 in 10.0 mi East 4.6 mph - N/A   Clear
1:35 AM 44.6 °F 43.1 °F 41.0 °F 87% 30.01 in 10.0 mi NE 3.5 mph - N/A   Scattered Clouds
1:55 AM 44.6 °F 43.1 °F 41.0 °F 87% 30.01 in 10.0 mi East 3.5 mph - N/A   Mostly Cloudy
2:15 AM 44.6 °F 42.2 °F 42.8 °F 93% 30.02 in 10.0 mi East 4.6 mph - N/A   Overcast
2:35 AM 44.6 °F - 42.8 °F 93% 30.00 in 10.0 mi Calm Calm - N/A   Light Drizzle
2:55 AM 44.6 °F 43.1 °F 42.8 °F 93% 29.99 in 10.0 mi NNE 3.5 mph - N/A   Overcast
3:15 AM 44.6 °F 41.4 °F 42.8 °F 93% 29.98 in 10.0 mi NNE 5.8 mph - N/A Rain Light Rain
3:35 AM 44.6 °F - 42.8 °F 93% 30.01 in 10.0 mi Calm Calm - 0.02 in Rain Rain
3:55 AM 44.6 °F 40.2 °F 42.8 °F 93% 29.97 in 7.0 mi East 8.1 mph - 0.04 in Rain Light Rain
4:15 AM 44.6 °F 40.7 °F 42.8 °F 93% 29.95 in 10.0 mi ENE 6.9 mph - N/A   Overcast
4:35 AM 44.6 °F 41.4 °F 42.8 °F 93% 29.96 in 7.0 mi ENE 5.8 mph - 0.01 in Rain Rain
4:55 AM 44.6 °F 40.2 °F 44.6 °F 100% 29.94 in 7.0 mi NE 8.1 mph - 0.03 in Rain Rain
5:15 AM 44.6 °F 40.2 °F 42.8 °F 93% 29.90 in 10.0 mi ENE 8.1 mph - N/A Rain , Thunderstorm Light Thunderstorms and Rain
5:35 AM 44.6 °F 39.7 °F 42.8 °F 93% 29.89 in 10.0 mi NE 9.2 mph - 0.01 in Thunderstorm Unknown
5:55 AM 44.6 °F 42.2 °F 42.8 °F 93% 29.93 in 2.5 mi ENE 4.6 mph - 0.08 in Rain Rain
6:15 AM 44.6 °F 43.1 °F 44.6 °F 100% 29.92 in 3.0 mi NE 3.5 mph - 0.12 in Rain , Thunderstorm Light Thunderstorms and Rain
6:35 AM 44.6 °F 40.7 °F 44.6 °F 100% 29.91 in 10.0 mi ENE 6.9 mph - 0.13 in Thunderstorm Drizzle
6:55 AM 44.6 °F - 42.8 °F 93% 29.93 in 10.0 mi Calm Calm - 0.15 in Rain Light Rain
7:15 AM 44.6 °F 41.4 °F 44.6 °F 100% 29.91 in 7.0 mi East 5.8 mph - 0.01 in Rain Light Rain
7:35 AM 44.6 °F 42.2 °F 44.6 °F 100% 29.91 in 10.0 mi NE 4.6 mph - 0.01 in   Overcast
7:55 AM 44.6 °F 41.4 °F 44.6 °F 100% 29.91 in 10.0 mi East 5.8 mph - 0.01 in Thunderstorm Overcast
8:15 AM 44.6 °F 39.7 °F 44.6 °F 100% 29.89 in 7.0 mi East 9.2 mph - N/A   Overcast
8:35 AM 44.6 °F 39.7 °F 44.6 °F 100% 29.89 in 5.0 mi East 9.2 mph - 0.01 in   Overcast
8:55 AM 44.6 °F 42.2 °F 44.6 °F 100% 29.90 in 5.0 mi ENE 4.6 mph - 0.01 in Thunderstorm Unknown
9:15 AM 44.6 °F 41.4 °F 44.6 °F 100% 29.92 in 2.5 mi North 5.8 mph - N/A Thunderstorm Unknown
9:35 AM 44.6 °F 43.1 °F 44.6 °F 100% 29.95 in 4.0 mi NW 3.5 mph - 0.01 in Rain , Thunderstorm Light Thunderstorms and Rain
9:55 AM 46.4 °F 45.2 °F 44.6 °F 93% 29.95 in 1.5 mi NW 3.5 mph - 0.02 in   Heavy Drizzle
10:15 AM 46.4 °F 45.2 °F 44.6 °F 93% 29.96 in 3.0 mi NW 3.5 mph - N/A   Light Drizzle
10:35 AM 46.4 °F - 44.6 °F 93% 29.95 in 3.0 mi Calm Calm - 0.01 in   Drizzle
10:55 AM 46.4 °F - 44.6 °F 93% 29.95 in 4.0 mi Calm Calm - 0.01 in   Overcast
11:15 AM 46.4 °F 45.2 °F 44.6 °F 93% 29.94 in 7.0 mi NNE 3.5 mph - N/A   Overcast
11:35 AM 48.2 °F - 46.4 °F 93% 29.93 in 10.0 mi NNE 3.5 mph - N/A   Overcast
11:55 AM 48.2 °F - 46.4 °F 93% 29.92 in 10.0 mi NE 4.6 mph - N/A   Overcast
12:15 PM 48.2 °F - 46.4 °F 93% 29.93 in 10.0 mi Calm Calm - N/A   Overcast
12:35 PM 48.2 °F - 46.4 °F 93% 29.92 in 10.0 mi NE 4.6 mph - N/A   Overcast
12:55 PM 48.2 °F - 46.4 °F 93% 29.91 in 10.0 mi Calm Calm - N/A   Overcast
1:15 PM 48.2 °F - 46.4 °F 93% 29.90 in 10.0 mi Calm Calm - N/A   Overcast
1:35 PM 46.4 °F 44.3 °F 46.4 °F 100% 29.89 in 10.0 mi North 4.6 mph - N/A   Overcast
1:55 PM 48.2 °F - 46.4 °F 93% 29.89 in 5.0 mi North 4.6 mph - N/A   Overcast
2:15 PM 46.4 °F 44.3 °F 46.4 °F 100% 29.88 in 7.0 mi North 4.6 mph - N/A   Overcast
2:35 PM 46.4 °F 45.2 °F 46.4 °F 100% 29.88 in 10.0 mi North 3.5 mph - N/A   Overcast
2:55 PM 48.2 °F - 46.4 °F 93% 29.87 in 10.0 mi Calm Calm - N/A   Overcast
3:15 PM 48.2 °F - 46.4 °F 93% 29.87 in 10.0 mi Calm Calm - N/A   Overcast
3:35 PM 50.0 °F - 46.4 °F 87% 29.86 in 10.0 mi North 4.6 mph - N/A   Overcast
3:55 PM 48.2 °F - 46.4 °F 93% 29.88 in 10.0 mi NW 5.8 mph - N/A   Overcast
4:15 PM 50.0 °F - 46.4 °F 87% 29.89 in 10.0 mi NW 10.4 mph - N/A   Overcast
4:35 PM 48.2 °F - 44.6 °F 87% 29.89 in 7.0 mi NW 9.2 mph - N/A   Overcast
4:55 PM 48.2 °F - 44.6 °F 87% 29.89 in 10.0 mi WNW 10.4 mph - N/A   Overcast
5:15 PM 48.2 °F - 44.6 °F 87% 29.89 in 10.0 mi NW 10.4 mph - N/A   Overcast
5:35 PM 48.2 °F - 44.6 °F 87% 29.89 in 10.0 mi NW 10.4 mph - N/A   Mostly Cloudy
5:55 PM 46.4 °F 42.4 °F 44.6 °F 93% 29.91 in 10.0 mi WNW 8.1 mph - N/A   Overcast
6:15 PM 46.4 °F 42.4 °F 42.8 °F 87% 29.91 in 10.0 mi NW 8.1 mph - N/A   Scattered Clouds
6:35 PM 46.4 °F 42.9 °F 42.8 °F 87% 29.92 in 10.0 mi NW 6.9 mph - N/A   Scattered Clouds
6:55 PM 46.4 °F 42.4 °F 42.8 °F 87% 29.93 in 10.0 mi NW 8.1 mph - N/A   Overcast
7:15 PM 46.4 °F 41.9 °F 42.8 °F 87% 29.94 in 10.0 mi NW 9.2 mph - N/A   Overcast
7:35 PM 46.4 °F 41.9 °F 42.8 °F 87% 29.95 in 10.0 mi NW 9.2 mph - N/A   Mostly Cloudy
8:15 PM 44.6 °F 39.2 °F 42.8 °F 93% 29.96 in 10.0 mi NW 10.4 mph - N/A   Clear
8:35 PM 44.6 °F 39.2 °F 42.8 °F 93% 29.96 in 10.0 mi NW 10.4 mph - N/A   Clear
8:55 PM 44.6 °F 39.2 °F 42.8 °F 93% 29.97 in 10.0 mi NW 10.4 mph - N/A   Clear
9:15 PM 44.6 °F 40.2 °F 42.8 °F 93% 29.98 in 10.0 mi NW 8.1 mph - N/A   Scattered Clouds
9:35 PM 44.6 °F 39.7 °F 41.0 °F 87% 29.98 in 10.0 mi NW 9.2 mph - N/A   Scattered Clouds
9:55 PM 44.6 °F 39.2 °F 42.8 °F 93% 29.99 in 10.0 mi NW 10.4 mph - N/A   Mostly Cloudy
10:15 PM 44.6 °F 38.1 °F 42.8 °F 93% 30.00 in 10.0 mi NW 13.8 mph - N/A Rain Light Rain
10:35 PM 44.6 °F 37.2 °F 42.8 °F 93% 30.00 in 7.0 mi NW 17.3 mph 21.9 mph N/A   Light Drizzle
10:55 PM 42.8 °F 34.5 °F 41.0 °F 93% 30.02 in 7.0 mi NW 18.4 mph 29.9 mph N/A   Overcast
11:15 PM 42.8 °F 35.1 °F 41.0 °F 93% 30.02 in 10.0 mi NW 16.1 mph - N/A   Overcast
11:35 PM 42.8 °F 34.8 °F 39.2 °F 87% 30.03 in 10.0 mi NW 17.3 mph 26.5 mph N/A   Overcast
11:55 PM 42.8 °F 35.1 °F 39.2 °F 87% 30.04 in 10.0 mi NW 16.1 mph 24.2 mph N/A   Overcast